RH
10 9 9 9 9 8 8 8 8 9 9 8 8 9 10 12 12 13 14 16 18 17 16 16 15 17 24 32 38 41 50 48 50 58 56 60 65 50 43 33 31 37 30 39 62
8 9 8 8 9 9 9 9 8 8 8 8 8 7 9 10 10 11 12 14 16 18 18 14 16 18 25 31 41 44 46 49 43 47 52 59 65 63 45 38 36 46 76 45 61
7 7 7 7 8 8 8 9 10 9 8 8 8 8 7 8 10 9 10 11 13 16 18 17 18 19 24 31 38 39 54 57 53 61 65 52 48 70 58 32 48 63 72 57 52
7 8 8 8 8 8 8 9 9 10 10 8 8 8 8 8 9 8 8 9 11 13 17 20 20 23 25 32 35 44 52 56 54 51 51 50 64 56 61 43 41 62 84 62 50
9 8 8 7 8 8 9 9 9 9 9 10 8 8 8 8 7 7 7 9 10 12 13 18 23 28 30 34 31 36 41 54 56 55 47 44 45 65 55 52 45 65 78 68 43
9 9 10 9 9 8 6 7 8 8 9 8 10 8 9 8 7 7 7 7 9 12 14 14 20 24 30 35 34 35 38 50 54 55 55 47 45 57 41 63 56 66 71 73 61
6 6 5 5 5 4 4 4 4 6 8 9 9 9 9 9 8 7 7 8 7 10 14 13 13 17 22 29 34 36 36 38 45 54 54 55 52 49 62 61 55 55 69 83 67
13 11 8 6 5 4 3 3 3 3 5 8 8 9 9 9 8 8 7 8 8 8 12 16 13 15 15 24 23 41 46 53 46 48 55 56 53 57 61 69 68 54 52 100 91
11 13 15 17 18 17 15 12 9 4 3 5 5 7 9 8 8 8 8 9 9 8 9 15 14 16 14 23 24 36 53 56 49 56 58 62 51 52 59 58 66 61 84 99 94
5 6 7 8 9 12 15 17 18 17 9 10 8 7 9 7 8 8 9 9 10 9 9 12 14 13 14 24 42 41 55 56 51 56 57 53 50 48 61 79 79 74 77 99 98
14 8 6 6 6 6 9 11 14 15 17 19 17 8 9 6 7 9 9 9 13 10 10 12 11 12 13 26 26 29 52 54 49 58 51 52 48 45 63 92 80 82 87 92 95
62 49 27 15 11 11 12 17 12 16 16 18 19 11 8 5 7 10 10 11 14 12 12 12 11 13 12 21 20 23 45 48 45 48 56 56 48 46 72 90 88 93 99 99 89
64 64 65 59 60 50 34 20 12 12 19 21 17 12 8 6 8 10 10 12 14 13 14 12 12 12 15 19 17 24 38 56 46 47 51 54 51 55 73 77 81 95 100 95 85
58 49 52 51 66 53 58 47 25 17 27 20 14 11 9 8 10 11 10 13 13 15 18 16 12 13 18 20 20 24 36 46 42 41 47 42 45 46 41 41 49 59 83 100 100
52 66 65 55 55 51 50 49 32 34 48 19 14 11 10 10 12 13 11 13 14 19 40 19 15 14 16 20 22 28 32 36 41 41 40 39 43 53 42 41 41 61 75 93 96
47 56 45 62 50 50 49 48 38 25 17 16 16 12 12 14 13 12 12 13 15 19 20 24 17 15 17 20 25 26 26 31 36 38 56 52 48 60 43 38 43 41 59 70 77
52 53 52 59 65 60 57 42 24 18 16 15 14 13 14 16 13 13 13 13 16 18 21 23 19 18 18 20 26 29 23 28 37 55 58 46 49 63 43 35 32 32 37 42 42
65 56 56 56 63 63 59 45 22 19 16 16 15 16 17 15 15 15 12 14 20 20 22 23 21 20 21 23 29 32 31 41 36 61 58 42 49 59 47 40 33 34 30 25 25
65 57 58 58 54 62 59 49 24 19 18 17 18 18 17 17 16 14 13 17 18 24 24 23 23 22 24 23 29 35 36 34 46 54 51 45 58 57 54 44 38 37 37 33 23
73 69 65 64 61 63 63 51 40 33 23 19 20 19 19 18 14 14 16 18 20 26 25 26 28 24 28 24 31 36 36 31 34 53 54 40 44 58 50 45 40 38 36 32 32
94 84 71 61 60 66 65 54 33 24 22 22 22 22 20 16 14 23 20 22 23 22 25 26 29 28 29 27 33 36 40 36 36 50 44 50 43 52 55 46 40 36 37 33 32
98 90 72 62 68 66 61 46 38 24 23 23 22 19 17 16 21 27 20 30 28 24 25 26 30 32 30 28 35 35 47 49 36 37 39 45 47 44 50 44 41 38 40 37 38
97 96 74 68 71 69 68 65 40 31 25 23 20 17 17 19 25 28 40 43 32 26 27 38 36 33 32 33 38 38 47 55 50 46 44 50 45 53 61 59 49 50 48 46 47
99 98 81 75 69 66 67 62 43 31 25 22 20 19 19 21 28 41 49 43 34 31 50 51 37 39 38 44 47 52 60 62 59 50 44 41 40 39 51 47 47 55 58 56 56
100 96 85 73 74 77 78 74 60 34 25 22 21 20 23 28 33 44 45 49 50 55 61 61 55 56 57 56 62 67 62 58 53 50 54 50 48 46 48 48 45 49 63 69 69
100 99 93 87 74 78 80 73 71 49 32 26 25 25 27 35 43 50 59 58 60 62 65 68 67 67 67 61 59 54 55 56 57 49 52 60 60 58 61 65 61 69 76 76 74
99 100 98 94 80 83 79 76 67 48 37 32 31 32 36 49 59 65 65 61 64 66 75 90 89 89 78 70 67 45 46 45 43 43 42 48 48 56 74 91 97 86 84 82 78
Wind_Speed
13 13 13 14 15 17 17 18 18 19 20 21 22 23 24 19 25 26 27 27 26 25 23 24 24 22 20 18 20 20 15 19 19 19 21 18 18 15 20 28 27 31 35 31 31
11 11 12 12 13 14 15 15 16 18 18 19 20 21 22 21 22 25 26 26 27 25 25 24 23 21 19 18 18 18 17 18 19 19 21 20 20 18 22 29 31 28 22 26 28
11 12 12 12 12 12 12 14 15 16 17 18 19 20 20 21 17 23 24 25 25 26 25 24 24 22 19 18 17 18 16 17 17 20 21 24 24 19 20 28 30 18 19 21 28
10 11 12 13 13 13 14 14 14 14 15 16 17 18 20 19 15 21 22 23 24 25 25 25 24 21 20 19 17 18 14 19 21 19 23 26 25 26 22 24 26 20 15 20 28
9 11 13 13 13 14 14 15 15 15 15 15 15 16 17 18 19 20 21 21 22 23 23 24 24 22 21 22 19 18 16 15 15 20 21 23 23 23 23 16 17 19 15 19 26
11 12 13 14 14 14 14 14 15 15 15 17 14 16 15 17 18 19 20 21 21 21 21 23 24 24 24 22 20 20 21 17 14 18 21 20 12 13 6 6 14 14 18 21 25
12 13 14 15 16 17 17 16 16 16 17 15 17 14 14 16 16 17 20 20 21 20 19 20 21 24 25 23 26 19 20 17 11 14 16 18 13 10 4 5 8 20 23 19 26
13 14 15 16 17 18 18 18 17 16 17 16 18 15 13 16 18 17 20 20 19 20 19 17 20 23 26 24 23 22 17 24 18 13 8 15 15 4 2 3 8 16 25 15 20
15 15 16 18 18 19 19 19 19 18 17 16 18 13 9 14 16 16 19 19 17 19 22 15 20 22 28 25 23 20 24 22 19 13 13 10 11 1 9 8 9 15 16 11 13
17 17 17 18 18 19 20 20 21 19 15 19 12 14 10 14 17 14 18 19 17 18 23 14 15 22 28 24 22 24 23 23 15 18 14 8 5 2 3 8 3 8 15 8 6
19 18 18 19 19 20 19 20 21 19 20 18 20 14 5 12 17 13 16 18 17 17 21 14 16 22 28 21 23 22 20 20 14 16 13 9 9 6 7 11 11 3 14 7 4
20 21 20 20 19 20 20 21 21 21 21 20 20 8 3 13 18 13 16 18 18 16 20 15 16 18 26 21 24 25 17 18 16 14 14 21 17 10 11 17 11 8 0 3 3
21 21 22 22 22 22 20 20 20 20 22 18 9 3 5 15 16 16 15 17 18 15 16 13 16 17 26 21 27 27 15 13 16 16 16 14 28 19 18 12 13 20 12 12 13
19 20 21 23 21 20 17 18 19 17 14 5 4 2 7 18 8 14 14 17 17 14 17 10 15 18 26 22 26 29 9 9 12 14 14 24 12 32 30 26 20 18 15 15 16
24 24 28 23 17 18 17 18 16 17 5 6 2 4 12 19 18 12 15 15 14 12 23 16 16 18 26 21 24 26 5 9 13 17 15 15 15 24 27 29 30 29 18 14 16
25 27 26 19 17 18 20 18 17 5 3 4 5 6 16 19 12 12 17 15 8 11 16 17 14 19 22 19 22 25 6 7 11 9 10 14 5 23 31 28 22 24 24 18 13
23 23 25 20 20 19 20 19 10 4 4 3 6 15 18 16 10 14 15 16 9 10 16 14 9 18 23 20 17 25 12 5 5 5 1 6 15 9 17 28 22 18 17 16 15
23 19 23 22 21 21 22 17 5 5 8 13 13 17 14 8 11 18 13 11 10 12 10 13 8 16 22 15 13 24 20 5 2 1 4 6 5 4 7 15 19 16 15 13 10
20 19 22 21 24 23 19 9 5 8 8 11 17 11 5 10 16 8 13 7 9 9 12 9 9 10 20 11 16 11 11 11 2 1 1 4 9 7 3 3 4 9 13 17 12
22 20 20 22 23 20 18 12 10 13 15 14 12 7 10 16 8 10 6 5 9 10 14 14 9 8 20 7 9 13 19 7 5 2 2 2 4 3 2 3 8 11 15 17 10
23 21 21 23 26 20 16 12 12 12 11 10 11 15 15 9 8 8 3 8 6 13 16 15 9 15 15 5 6 9 16 9 4 3 1 2 3 2 5 7 12 15 11 12 12
25 21 21 23 23 17 14 13 14 14 14 14 15 14 7 8 8 6 3 9 14 13 17 10 10 13 13 4 3 5 16 10 2 2 4 4 5 10 8 7 14 12 10 10 9
28 21 23 20 20 21 17 17 16 16 15 12 9 7 11 9 5 4 7 15 15 13 10 16 8 10 4 3 5 15 19 13 8 7 10 4 2 17 8 11 14 10 8 9 8
24 19 24 24 16 12 17 19 15 15 15 10 10 14 13 12 10 9 18 11 14 13 18 16 10 12 12 18 21 23 23 21 15 9 9 16 7 12 16 22 16 11 10 10 11
30 24 22 20 27 24 21 19 20 15 15 17 17 13 12 12 15 19 19 19 14 17 15 15 15 18 20 20 25 27 21 16 20 21 15 11 13 18 20 17 19 17 13 11 13
30 25 25 25 25 25 23 22 20 17 17 18 17 15 15 17 18 22 23 17 17 15 14 18 15 22 32 18 10 19 19 23 23 21 23 26 24 21 22 23 20 17 17 18 18
29 24 25 28 27 26 26 21 19 17 16 16 17 16 16 18 22 22 20 19 21 22 23 26 21 14 12 13 20 16 6 7 9 12 13 16 18 18 17 18 19 21 24 23 23
Wind_Direction
56 53 47 42 39 35 33 31 29 27 27 27 26 26 25 24 24 22 22 22 18 13 10 11 4 1 359 357 352 344 332 327 322 316 307 308 293 269 243 240 236 233 245 244 243
49 43 39 36 32 27 24 22 21 19 17 19 19 18 19 18 20 18 20 19 17 13 12 8 7 3 360 358 354 347 339 333 329 322 308 298 288 288 261 235 240 237 255 235 240
36 32 28 27 26 23 20 15 10 9 8 8 9 10 13 13 13 12 15 15 14 13 10 8 5 3 3 358 347 339 337 334 338 319 308 296 282 278 270 246 237 249 248 233 229
25 22 19 15 13 9 8 7 5 2 356 359 359 1 4 7 12 4 9 8 10 11 9 7 5 5 4 1 347 327 336 331 329 328 305 302 287 271 264 262 238 243 252 230 224
3 6 3 2 357 355 354 354 355 354 352 347 349 351 354 360 1 0 1 4 3 5 9 8 4 4 2 354 347 337 328 329 315 331 331 312 296 277 268 267 238 245 257 238 223
342 346 340 339 337 335 336 337 339 343 342 346 336 344 343 352 356 357 357 357 357 358 5 9 6 5 3 352 346 335 322 316 305 328 340 335 313 270 300 252 233 248 251 223 217
336 337 329 328 326 325 328 328 327 329 333 335 341 330 336 343 347 355 356 352 354 351 358 4 4 6 0 3 347 338 334 329 315 321 339 338 345 311 2 295 231 249 247 222 208
336 337 330 329 328 327 329 329 328 325 324 324 333 331 329 343 341 349 354 349 348 352 349 349 1 2 2 356 357 356 344 344 357 336 332 340 354 352 19 307 239 245 255 226 208
332 330 324 321 322 322 326 328 327 327 325 321 327 334 320 341 341 342 351 351 345 352 353 343 354 2 359 360 1 358 343 351 360 6 349 323 352 360 239 323 238 244 251 230 216
329 326 320 318 317 321 324 324 322 324 325 323 324 324 313 339 344 341 349 352 348 347 352 351 356 1 1 4 353 346 345 356 355 358 7 22 7 21 335 352 261 228 258 278 175
332 327 324 322 323 325 327 323 323 325 325 324 317 306 299 344 346 341 347 352 356 350 350 359 6 6 7 3 3 4 0 5 13 5 6 354 44 49 35 60 62 54 292 324 277
334 329 326 328 328 329 330 330 329 326 322 319 313 284 308 351 344 341 346 353 355 354 354 358 9 4 3 1 7 10 13 14 23 25 55 64 61 49 39 38 37 27 31 179 112
331 328 321 321 326 326 328 330 330 328 322 318 327 205 336 346 340 336 341 345 353 4 359 0 2 7 3 5 9 13 8 19 21 57 58 65 63 59 54 65 13 12 52 102 100
331 336 339 331 325 328 330 331 335 332 327 359 2 266 333 347 342 336 340 347 351 10 12 350 355 6 9 10 7 10 14 36 46 75 45 66 50 56 62 60 54 36 24 81 64
332 324 330 334 335 342 340 339 337 332 7 343 341 323 332 343 336 336 341 343 349 19 345 356 355 359 12 8 10 3 50 64 71 71 76 70 72 37 56 52 48 47 70 62 46
330 329 337 335 338 342 342 340 335 321 261 312 309 319 328 337 339 338 342 345 344 1 356 2 357 2 4 11 19 9 120 94 74 86 41 27 86 37 47 39 50 52 53 52 41
321 325 334 327 330 333 335 335 330 236 312 293 310 320 326 333 333 334 340 346 3 8 358 357 4 360 357 14 24 25 58 21 35 28 245 46 63 77 49 42 39 38 45 48 48
311 322 330 334 330 329 328 327 280 285 292 292 310 318 323 338 332 333 339 346 5 12 348 344 353 2 359 23 19 29 34 47 124 1 299 34 71 82 47 29 32 35 33 26 25
307 314 327 331 329 328 330 322 268 290 294 302 310 310 320 324 327 334 336 345 356 4 9 339 332 3 1 24 29 25 23 25 66 53 21 28 108 121 167 258 316 350 358 4 5
299 307 317 322 327 326 326 318 284 291 291 300 309 290 305 318 324 331 341 328 338 347 347 338 318 349 354 23 50 33 22 14 17 36 12 356 107 311 213 45 1 349 351 355 356
287 300 314 321 324 320 316 308 301 290 289 293 295 295 305 309 313 326 315 322 316 325 335 334 332 328 353 348 84 48 22 21 28 44 100 319 237 287 310 332 344 346 331 331 334
282 294 307 316 316 318 310 306 302 289 288 289 294 292 284 302 305 306 306 320 310 314 327 328 316 316 338 137 76 353 350 350 127 199 245 220 244 228 251 292 326 315 296 296 303
280 292 302 311 309 306 302 298 291 289 287 286 273 265 292 289 299 273 303 318 303 310 320 321 304 317 348 204 325 317 323 326 321 282 234 190 225 210 252 300 309 306 279 267 268
270 288 300 309 308 304 306 301 292 290 282 269 267 282 279 275 272 278 308 307 297 293 305 304 282 282 264 292 297 296 299 295 286 233 233 227 237 221 242 283 288 289 280 269 259
263 279 293 287 298 297 297 292 285 278 274 280 277 277 269 268 284 294 306 307 295 299 306 299 290 295 295 296 296 292 288 283 268 272 260 276 255 253 255 268 283 282 282 283 276
260 272 287 282 291 293 295 296 289 277 273 276 270 275 268 275 286 296 301 301 306 311 304 296 290 301 304 315 290 298 293 283 276 268 256 254 262 259 264 276 275 278 275 278 280
262 271 280 274 282 289 292 293 284 278 275 270 268 269 275 285 291 292 288 291 290 290 292 289 284 298 293 302 309 298 278 260 256 260 266 253 259 256 258 264 274 275 280 286 287